Regional Weather Roundup
Issued by NWS Wilmington, NC

Home | Current Version | Previous Version | Text Only | Print | Product List | Glossary On
Versions: 1 2 3 4 5 6 7 8 9 10 11 12 13 14 15 16 17 18 19 20 21 22 23 24 25 26 27 28 29 30 31 32 33 34 35 36 37 38 39 40 41 42 43 44 45 46 47 48 49 50
000
ASUS42 KILM 251213
RWRILM
RWRILM
REGIONAL HOURLY WEATHER ROUNDUP
NATIONAL WEATHER SERVICE WILMINGTON NC
800 AM EDT MON MAY 25 2015

NOTE: "FAIR" INDICATES FEW OR NO CLOUDS BELOW 12,000 FEET WITH NO
SIGNIFICANT WEATHER AND/OR OBSTRUCTIONS TO VISIBILITY.

...............WFO WILMINGTON COUNTY WARNING AREA...............

......COASTAL NC AND SC COUNTIES......

CITY           SKY/WX    TMP DP  RH WIND       PRES   REMARKS
WILMINGTON     SUNNY     68  62  81 CALM      30.34S
N MYRTLE BEACH SUNNY     74  58  57 SE7       30.33R
MYRTLE BEACH   SUNNY     75  57  53 SE9       30.35R

......INLAND NC AND SC COUNTIES.......

CITY           SKY/WX    TMP DP  RH WIND       PRES   REMARKS
LUMBERTON      SUNNY     66  60  81 CALM      30.34R
ELIZABETHTOWN  MOSUNNY   63  61  93 CALM      30.35S
WHITEVILLE     SUNNY     64  60  86 CALM      30.33F
FLORENCE       SUNNY     65  59  81 E5        30.33R
DARLINGTON     SUNNY     63  55  77 NE3       30.34F

....................REST OF NORTH CAROLINA......................

.........EASTERN NC.........

CITY           SKY/WX    TMP DP  RH WIND       PRES   REMARKS
CAPE HATTERAS  SUNNY     73  57  57 S6        30.37R
JACKSONVILLE   MOSUNNY   64  59  82 CALM      30.36R
MOREHEAD CITY  SUNNY     72  59  63 SE6       30.36R
KENANSVILLE    MOSUNNY   64  62  90 CALM      30.37R
NEW BERN       SUNNY     70  60  70 CALM      30.37R
ELIZABETH CITY SUNNY     69  63  81 SW3       30.36R

.........CENTRAL NC.........

CITY           SKY/WX    TMP DP  RH WIND       PRES   REMARKS
RALEIGH DURHAM PTSUNNY   66  59  78 SW6       30.34F
ROCKY MOUNT    SUNNY     67  62  84 CALM      30.36R
ROANOKE RAPIDS NOT AVBL
FAYETTEVILLE   MOSUNNY   64  60  87 CALM      30.34S
HOFFMAN        SUNNY     62  58  86 NE1       30.38R

.........WESTERN NC.........

CITY           SKY/WX    TMP DP  RH WIND       PRES   REMARKS
CHARLOTTE      MOSUNNY   66  56  70 CALM      30.35R
GREENSBORO     MOSUNNY   64  57  78 SW8       30.34R
HICKORY        NOT AVBL
BOONE          NOT AVBL
ASHEVILLE      NOT AVBL

.....................REST OF SOUTH CAROLINA.....................

.........EASTERN SC.........

CITY           SKY/WX    TMP DP  RH WIND       PRES   REMARKS
CHARLESTON     PTSUNNY   72  62  71 NE5       30.29S
BEAUFORT MCAS  PTSUNNY   76  66  71 E6        30.28R
HILTON HEAD    PTSUNNY   77  70  78 NE6       30.28R

.........CENTRAL SC.........

CITY           SKY/WX    TMP DP  RH WIND       PRES   REMARKS
COLUMBIA       MOSUNNY   66  58  75 E7        30.32R
ORANGEBURG     MOSUNNY   66  60  81 NE5       30.32R
SUMTER SHAW    SUNNY     63  59  88 N3        30.31S HAZE

.........WESTERN SC.........

CITY           SKY/WX    TMP DP  RH WIND       PRES   REMARKS
GREENVILLE     NOT AVBL
ROCK HILL      SUNNY     64  58  80 SW3       30.35R
ANDERSON       SUNNY     66  60  81 NE3       30.32S
CLEMSON        NOT AVBL
GREENWOOD      SUNNY     64  59  83 NE5       30.33S


...................COASTAL AND OFFSHORE REPORTS..................

................LOCAL PIERS AND NC RESERVE................


STATION/POSITION TIME  SKY/WX   TEMP    WIND        PRES    VSBY
                                AIR SEA DIR/SP/G
                 (UTC)          (F)     (DEG/KT/KT) (MB)    (MI)
JOHNY MRCER PIER 1100            73 77  130/  9/ 11 1026.7R
NC RESRV MASNBRO NOT AVBL
OCEAN CREST PIER 1202            74 75   70/ 10/ 12 1026.5R
SPRINGMAID  PIER 1100            73 75   90/ 11/ 14 1026.6R


................COASTAL AND OFFSHORE BUOYS................


STATION/POSITION TIME  SKY/WX   TEMP    WIND        PRES    VSBY
                                AIR SEA DIR/SP/G
                 (UTC)          (F)     (DEG/KT/KT) (MB)    (MI)
DIMNDSHOAL 41025 1150            73 77  150/  6/ 10 1028.4R
WVE H/P(F/S)=  2/ 8 SWL H/P/D(F/S/D)=  2/ 80/ 8

CAPE LOOKOUT     1200            72     130/  7/  8 1027.8R
ONSLOW BAY 41036 NOT AVBL
5 WRITEBCH 41038 1108            74 76  140/  8/ 12 1027.2R
MASONBORO  41110 1119               76                N/A
WVE H/P(F/S)=  3/ 6 WND WVE H/P(F/S)=  3/ 6

WILM HARBR 41108 1111               75                N/A
WVE H/P(F/S)=  3/ 7 WND WVE H/P(F/S)=  3/ 7

27WRITEBCH 41037 1100            71 76  140/  8/ 10   N/A
FRYING PAN 41013 1150            74 74  130/ 10/ 12 1027.7R
WVE H/P(F/S)=  4/ 6 WND WVE H/P(F/S)=  2/ 4 SWL H/P/D(F/S/D)=  3/130/ 6

SUNST NRSH 41024 1108            73     140/ 10/ 14 1026.9R
CAPRS NRSH 41029 1108            74     110/ 12/ 16 1025.9R
EDISTO     41004 1150            75 75   90/ 10/ 12 1025.6R
WVE H/P(F/S)=  5/ 7 WND WVE H/P(F/S)=  2/ 5 SWL H/P/D(F/S/D)=  3/ 7



..........OFFSHORE BUOYS BEYOND 100 NM OFFSHORE...........
.....IN A TRIANGLE---HAT TO BERMUDA TO BAHAMAS TO HAT.....


STATION/POSITION TIME  SKY/WX   TEMP    WIND        PRES    VSBY
                                AIR SEA DIR/SP/G
                 (UTC)          (F)     (DEG/KT/KT) (MB)    (MI)
150E HAT   41001 NOT AVBL
W BERMUDA  41048 1150            72 74   70/ 14/ 17 1027.4R
WVE H/P(F/S)=  5/ 6 WND WVE H/P(F/S)=  5/ 6 SWL H/P/D(F/S/D)=  2/120/12

ATLANTIC S 41049 1150            75 78   30/  8/ 10 1022.7R
WVE H/P(F/S)=  3/ 8 WND WVE H/P(F/S)=  2/ 4 SWL H/P/D(F/S/D)=  3/360/ 8

E BAHAMAS  41046 1150            80 81   70/ 10/ 14 1021.1R
WVE H/P(F/S)=  4/ 8 WND WVE H/P(F/S)=  2/ 4 SWL H/P/D(F/S/D)=  3/ 40/ 8

NE BAHAMAS 41047 1150            78 79   60/ 10/ 12 1023.5R
WVE H/P(F/S)=  4/ 6 WND WVE H/P(F/S)=  2/ 4 SWL H/P/D(F/S/D)=  3/ 70/ 6

120E CANVRL41010 1120            78 80   80/ 12/ 12 1023.4R

END



USA.gov is the U.S. government's official web portal to all federal, state and local government web resources and services.